Location: Newark
(52.3735°N, 16.9806°E)
Time: 06:02:02
(UTC+00:00)

Nauka - Pass Details

Date: 02 October 2021
Orbit: 417 x 423 km, 51.6° (Epoch: 23 October)

Event Time Altitude Azimuth Distance (km) Brightness Sun altitude
Rises 17:29:17 0° 282° (WNW) 2,365 ? -10.4°
Reaches altitude 10° 17:31:28 10° 273° (W) 1,500 ? -10.7°
Maximum altitude 17:34:35 37° 205° (SSW) 676 ? -11.2°
Enters shadow 17:37:21 12° 139° (SE) 1,362 ? -11.6°
